Flag for U.S.A. Weather past 2 weeks in Salem, Oregon, U.S.A.

Now
59 °F

Clear.


Feels Like: 59 °F
Forecast: 52 / 78 °F
Wind: No wind

Location: McNary Field

Current Time: Aug 21, 2014 at 1:26:06 AM

Latest Report: Aug 21, 2014 at 12:56 AM


Visibility: 10 mi

Pressure: 30.01 "Hg

Humidity: 69%

Dew point: 49 °F

Location of SalemLocation

Historic Weather in Salem — Graph

°F

Salem temperature yesterday

Maximum temperature yesterday: 79 °F (at 4:56 PM)
Minimum temperature yesterday: 59 °F (at 11:56 PM)
Average temperature yesterday: 68 °F

Past Weeks' High & Low Weather Summary

 TemperatureHumidityPressure
High98 °F (Aug 11, 5:56 PM)93% (Aug 14, 5:56 AM)30.15 "Hg (Aug 14, 5:56 AM)
Low55 °F (Aug 9, 4:56 AM)18% (Aug 7, 3:56 PM)29.76 "Hg (Aug 18, 6:56 PM)
Average72 °F57%29.97 "Hg
* Reported Aug 5 11:56 PM — Aug 20 11:56 PM, Salem, Weather by CustomWeather, © 2014

Note: Actual official high and low records may vary slightly from our data, if they occured in-between our weather recording intervals... More about our weather records

Advertising

Salem weather history for previous 24 hours

 ConditionsComfort  
Time TempWeatherWind HumidityBarometerVisibility
11:56 PM
Aug 20
59 °FClear.6 mph67%30.00 "Hg10 mi
10:56 PM63 °FClear.3 mph60%29.99 "Hg10 mi
9:56 PM64 °FClear.6 mph56%29.98 "Hg10 mi
8:56 PM67 °FSunny.5 mph51%29.97 "Hg10 mi
7:56 PM71 °FSunny.10 mph45%29.94 "Hg10 mi
6:56 PM76 °FSunny.12 mph39%29.93 "Hg10 mi
5:56 PM78 °FSunny.6 mph33%29.93 "Hg10 mi
4:56 PM79 °FSunny.6 mph34%29.93 "Hg10 mi
3:56 PM78 °FSunny.5 mph35%29.94 "Hg10 mi
2:56 PM76 °FSunny.3 mph39%29.96 "Hg10 mi
1:56 PM73 °FSunny.5 mph43%29.97 "Hg10 mi
12:56 PM72 °FPassing clouds.No wind46%29.97 "Hg10 mi
11:56 AM70 °FPartly sunny.5 mph51%29.98 "Hg10 mi
10:56 AM68 °FPassing clouds.5 mph57%29.98 "Hg10 mi
9:56 AM66 °FPartly sunny.5 mph63%29.98 "Hg10 mi
8:56 AM64 °FPartly sunny.7 mph68%29.97 "Hg10 mi
7:56 AM63 °FOvercast.7 mph70%29.96 "Hg10 mi
6:56 AM63 °FOvercast.9 mph65%29.95 "Hg10 mi
5:56 AM64 °FOvercast.7 mph65%29.92 "Hg10 mi
4:56 AM64 °FOvercast.6 mph65%29.92 "Hg10 mi
3:56 AM64 °FOvercast.7 mph68%29.90 "Hg10 mi
2:56 AM65 °FOvercast.3 mph68%29.90 "Hg10 mi
1:56 AM64 °FOvercast.3 mph73%29.90 "Hg10 mi
Weather by CustomWeather, © 2014

See weather overviewHow to use our weather pages